Location: Moscow
(38.8570°N, 84.2291°W)
Time: 17:06:16
(UTC+00:00)

O/OREOS (USA 219) - Pass Details

Date: 17 March 2026
Orbit: 577 x 597 km, 72.0° (Epoch: 18 April)

Event Time Altitude Azimuth Distance (km) Brightness Sun altitude
Rises 01:22:16 0° 317° (NW) 2,836 ? -19.6°
Reaches altitude 10° 01:25:32 10° 290° (WNW) 1,924 ? -20.2°
Maximum altitude 01:27:36 13° 261° (W) 1,704 ? -20.6°
Drops below altitude 10° 01:29:41 10° 232° (SW) 1,910 ? -20.9°
Sets 01:32:55 0° 205° (SSW) 2,799 ? -21.5°
